Radiation Dose at Monitoring Post of Fukushima Daini Nuclear Power Station
Date,Time,MP-1(microSv/h),MP-2(microSv/h),MP-3(microSv/h),MP-4(microSv/h),MP-5(microSv/h),MP-6(microSv/h),MP-7(microSv/h),Wind Direction,Wind Velocity(m/s),Rain
2017/11/05,00:00,0.323,0.209,0.341,0.321,0.310,0.167,0.100,north-northwest,5.1,No
2017/11/05,00:10,0.326,0.209,0.342,0.322,0.308,0.167,0.099,north-northwest,4.4,No
2017/11/05,00:20,0.323,0.208,0.341,0.320,0.308,0.167,0.100,northwest,3.9,No
2017/11/05,00:30,0.325,0.209,0.342,0.322,0.309,0.167,0.100,north-northwest,4.5,No
2017/11/05,00:40,0.327,0.208,0.344,0.322,0.310,0.167,0.100,north-northwest,4.4,No
2017/11/05,00:50,0.326,0.210,0.341,0.321,0.310,0.167,0.100,north-northwest,3.4,No
2017/11/05,01:00,0.325,0.208,0.340,0.321,0.308,0.167,0.100,northwest,2.8,No
2017/11/05,01:10,0.326,0.209,0.342,0.321,0.308,0.166,0.100,northwest,3.8,No
2017/11/05,01:20,0.325,0.209,0.341,0.321,0.308,0.167,0.100,northwest,4.2,No
2017/11/05,01:30,0.325,0.208,0.340,0.321,0.308,0.167,0.099,northwest,3.9,No
2017/11/05,01:40,0.324,0.207,0.340,0.322,0.308,0.167,0.101,north-northwest,3.1,No
2017/11/05,01:50,0.326,0.208,0.341,0.322,0.308,0.167,0.099,north-northwest,3.2,No
2017/11/05,02:00,0.327,0.207,0.343,0.322,0.309,0.167,0.100,north-northwest,2.5,No
2017/11/05,02:10,0.326,0.209,0.339,0.321,0.308,0.167,0.100,north-northwest,2.9,No
2017/11/05,02:20,0.325,0.209,0.343,0.322,0.309,0.167,0.100,north-northwest,2.8,No
2017/11/05,02:30,0.326,0.209,0.342,0.321,0.309,0.167,0.100,north-northwest,3.0,No
2017/11/05,02:40,0.325,0.209,0.341,0.321,0.309,0.168,0.100,north-northwest,3.0,No
2017/11/05,02:50,0.324,0.208,0.340,0.320,0.308,0.167,0.100,north-northwest,3.0,No
2017/11/05,03:00,0.325,0.208,0.341,0.321,0.309,0.168,0.099,north-northwest,3.5,No
2017/11/05,03:10,0.326,0.209,0.341,0.322,0.310,0.168,0.099,north-northwest,4.1,No
2017/11/05,03:20,0.324,0.208,0.340,0.321,0.308,0.167,0.100,north-northwest,3.8,No
2017/11/05,03:30,0.324,0.209,0.342,0.321,0.309,0.167,0.099,north-northwest,4.8,No
2017/11/05,03:40,0.327,0.209,0.341,0.322,0.308,0.167,0.100,north-northwest,4.4,No
2017/11/05,03:50,0.324,0.209,0.341,0.320,0.307,0.167,0.100,north-northwest,4.1,No
2017/11/05,04:00,0.324,0.207,0.340,0.321,0.307,0.167,0.100,north-northwest,2.9,No
2017/11/05,04:10,0.325,0.208,0.341,0.320,0.308,0.167,0.100,northwest,1.9,No
2017/11/05,04:20,0.325,0.208,0.341,0.319,0.309,0.167,0.100,north-northwest,1.7,No
2017/11/05,04:30,0.324,0.208,0.342,0.321,0.307,0.167,0.100,-,CALM,No
2017/11/05,04:40,0.324,0.208,0.341,0.320,0.308,0.166,0.100,west-southwest,0.8,No
2017/11/05,04:50,0.326,0.208,0.341,0.321,0.309,0.166,0.100,west,1.6,No
2017/11/05,05:00,0.324,0.207,0.341,0.320,0.308,0.166,0.100,north-northwest,3.0,No
2017/11/05,05:10,0.325,0.208,0.342,0.322,0.307,0.167,0.099,northwest,2.8,No
2017/11/05,05:20,0.325,0.209,0.341,0.322,0.310,0.167,0.100,northwest,3.7,No
2017/11/05,05:30,0.325,0.208,0.343,0.321,0.308,0.166,0.099,northwest,4.2,No
2017/11/05,05:40,0.325,0.208,0.340,0.321,0.307,0.167,0.099,northwest,6.2,No
2017/11/05,05:50,0.324,0.209,0.341,0.321,0.310,0.167,0.099,northwest,5.9,No
2017/11/05,06:00,0.324,0.207,0.341,0.321,0.309,0.167,0.100,northwest,5.1,No
2017/11/05,06:10,0.326,0.207,0.341,0.321,0.307,0.167,0.099,west-northwest,4.8,No
2017/11/05,06:20,0.323,0.208,0.342,0.319,0.308,0.168,0.100,northwest,6.2,No
2017/11/05,06:30,0.324,0.208,0.341,0.321,0.308,0.167,0.100,north-northwest,5.7,No
2017/11/05,06:40,0.325,0.208,0.339,0.322,0.309,0.166,0.100,north-northwest,6.4,No
2017/11/05,06:50,0.326,0.208,0.341,0.321,0.308,0.168,0.099,north,7.6,No
2017/11/05,07:00,0.325,0.208,0.342,0.321,0.308,0.167,0.099,north,5.9,No
2017/11/05,07:10,0.325,0.208,0.342,0.321,0.309,0.167,0.100,north-northwest,6.0,No
2017/11/05,07:20,0.325,0.208,0.340,0.321,0.309,0.166,0.099,north-northwest,4.6,No
2017/11/05,07:30,0.325,0.208,0.343,0.320,0.308,0.167,0.100,northwest,2.3,No
2017/11/05,07:40,0.323,0.208,0.340,0.319,0.309,0.167,0.100,northwest,2.4,No
2017/11/05,07:50,0.325,0.207,0.340,0.320,0.307,0.167,0.099,west,2.0,No
2017/11/05,08:00,0.325,0.208,0.341,0.320,0.308,0.166,0.100,west,2.2,No
2017/11/05,08:10,0.323,0.208,0.341,0.321,0.309,0.167,0.099,west-northwest,1.4,No
2017/11/05,08:20,0.326,0.207,0.339,0.321,0.308,0.167,0.099,west-northwest,1.5,No
2017/11/05,08:30,0.323,0.208,0.341,0.320,0.310,0.167,0.100,west-northwest,2.0,No
2017/11/05,08:40,0.324,0.209,0.340,0.321,0.309,0.167,0.099,west-northwest,0.8,No
2017/11/05,08:50,0.325,0.207,0.340,0.322,0.308,0.167,0.099,west,1.0,No
2017/11/05,09:00,0.323,0.208,0.342,0.319,0.311,0.166,0.100,north-northwest,1.5,No
2017/11/05,09:10,0.325,0.208,0.340,0.321,0.307,0.165,0.100,north,1.4,No
2017/11/05,09:20,0.324,0.208,0.340,0.319,0.310,0.166,0.100,-,CALM,No
2017/11/05,09:30,0.325,0.207,0.341,0.321,0.308,0.166,0.100,north-northwest,1.4,No
2017/11/05,09:40,0.323,0.208,0.340,0.320,0.310,0.166,0.100,north-northwest,2.5,No
2017/11/05,09:50,0.325,0.206,0.341,0.321,0.308,0.166,0.099,north-northwest,4.1,No
2017/11/05,10:00,0.325,0.208,0.341,0.320,0.309,0.167,0.100,north,3.9,No
2017/11/05,10:10,0.323,0.208,0.339,0.321,0.308,0.165,0.100,north,4.3,No
2017/11/05,10:20,0.326,0.209,0.340,0.320,0.307,0.166,0.100,north-northwest,3.7,No
2017/11/05,10:30,0.322,0.207,0.339,0.321,0.308,0.168,0.099,northwest,2.2,No
2017/11/05,10:40,0.325,0.209,0.340,0.320,0.308,0.166,0.101,northwest,1.4,No
2017/11/05,10:50,0.324,0.208,0.342,0.321,0.312,0.168,0.099,north-northwest,1.6,No
2017/11/05,11:00,0.326,0.208,0.340,0.320,0.308,0.167,0.100,north,2.5,No
2017/11/05,11:10,0.323,0.209,0.344,0.321,0.310,0.167,0.100,north-northwest,1.5,No
2017/11/05,11:20,0.327,0.208,0.339,0.322,0.308,0.167,0.100,north-northwest,2.2,No
2017/11/05,11:30,0.325,0.209,0.341,0.322,0.310,0.167,0.100,northwest,2.3,No
2017/11/05,11:40,0.326,0.209,0.340,0.322,0.309,0.167,0.100,west-northwest,2.3,No
2017/11/05,11:50,0.324,0.209,0.340,0.321,0.309,0.169,0.099,west-northwest,1.7,No
2017/11/05,12:00,0.326,0.208,0.340,0.323,0.310,0.167,0.100,north-northwest,1.5,No
2017/11/05,12:10,0.325,0.207,0.341,0.321,0.308,0.167,0.100,northwest,1.4,No
2017/11/05,12:20,0.324,0.209,0.340,0.318,0.309,0.167,0.099,northwest,1.2,No
2017/11/05,12:30,0.325,0.210,0.340,0.323,0.308,0.168,0.101,-,CALM,No
2017/11/05,12:40,0.325,0.209,0.340,0.319,0.312,0.167,0.100,west,1.6,No
2017/11/05,12:50,0.324,0.210,0.341,0.322,0.307,0.168,0.099,-,CALM,No
2017/11/05,13:00,0.325,0.206,0.339,0.320,0.312,0.168,0.100,north-northwest,1.1,No
2017/11/05,13:10,0.324,0.210,0.343,0.318,0.308,0.168,0.100,north,1.0,No
2017/11/05,13:20,0.325,0.209,0.340,0.323,0.309,0.167,0.099,north,1.2,No
2017/11/05,13:30,0.324,0.208,0.342,0.321,0.309,0.168,0.100,north-northeast,1.5,No
2017/11/05,13:40,0.326,0.208,0.341,0.322,0.309,0.168,0.099,north-northwest,1.3,No
2017/11/05,13:50,0.325,0.209,0.342,0.320,0.311,0.168,0.100,northwest,1.0,No
2017/11/05,14:00,0.326,0.209,0.341,0.324,0.310,0.168,0.100,south-southeast,1.8,No
2017/11/05,14:10,0.326,0.207,0.342,0.320,0.309,0.168,0.100,-,CALM,No
2017/11/05,14:20,0.325,0.210,0.342,0.324,0.310,0.167,0.100,east-southeast,0.7,No
2017/11/05,14:30,0.327,0.208,0.341,0.321,0.309,0.166,0.100,east-northeast,1.9,No
2017/11/05,14:40,0.323,0.210,0.342,0.324,0.311,0.169,0.099,east-northeast,1.8,No
2017/11/05,14:50,0.327,0.209,0.341,0.322,0.310,0.168,0.100,northeast,1.3,No
2017/11/05,15:00,0.324,0.209,0.343,0.323,0.311,0.168,0.099,east,1.4,No
2017/11/05,15:10,0.325,0.209,0.341,0.323,0.310,0.168,0.100,east,1.4,No
2017/11/05,15:20,0.325,0.208,0.342,0.322,0.310,0.167,0.100,east-southeast,1.6,No
2017/11/05,15:30,0.325,0.210,0.343,0.324,0.309,0.167,0.100,east-southeast,1.2,No
2017/11/05,15:40,0.327,0.209,0.340,0.321,0.313,0.167,0.099,east-southeast,1.4,No
2017/11/05,15:50,0.325,0.209,0.342,0.323,0.310,0.167,0.100,-,CALM,No
2017/11/05,16:00,0.326,0.209,0.341,0.321,0.311,0.168,0.100,east,0.8,No
2017/11/05,16:10,0.325,0.209,0.341,0.324,0.309,0.168,0.100,east-northeast,0.7,No
2017/11/05,16:20,0.326,0.208,0.341,0.323,0.311,0.169,0.101,-,CALM,No
2017/11/05,16:30,0.326,0.210,0.341,0.323,0.309,0.168,0.100,-,CALM,No
2017/11/05,16:40,0.325,0.210,0.343,0.323,0.310,0.169,0.100,south,0.7,No
2017/11/05,16:50,0.326,0.207,0.343,0.324,0.313,0.168,0.099,-,CALM,No
2017/11/05,17:00,0.325,0.209,0.342,0.321,0.310,0.168,0.100,south-southwest,1.7,No
2017/11/05,17:10,0.325,0.209,0.344,0.324,0.310,0.168,0.100,south-southwest,1.4,No
2017/11/05,17:20,0.327,0.209,0.342,0.323,0.311,0.168,0.100,southwest,2.1,No
2017/11/05,17:30,0.325,0.209,0.342,0.322,0.308,0.168,0.101,south-southwest,2.1,No
2017/11/05,17:40,0.325,0.210,0.343,0.325,0.310,0.168,0.100,southwest,2.2,No
2017/11/05,17:50,0.327,0.209,0.342,0.324,0.310,0.168,0.100,south-southwest,1.5,No
2017/11/05,18:00,0.326,0.209,0.342,0.322,0.310,0.169,0.100,west-southwest,0.6,No
2017/11/05,18:10,0.326,0.210,0.343,0.323,0.309,0.169,0.100,southwest,1.3,No
2017/11/05,18:20,0.328,0.209,0.343,0.323,0.311,0.168,0.100,west,1.7,No
2017/11/05,18:30,0.327,0.208,0.341,0.324,0.311,0.168,0.100,west-northwest,2.5,No
2017/11/05,18:40,0.325,0.210,0.343,0.322,0.310,0.168,0.101,west-northwest,5.3,No
2017/11/05,18:50,0.326,0.210,0.343,0.325,0.310,0.168,0.100,west-northwest,7.6,No
2017/11/05,19:00,0.327,0.209,0.343,0.323,0.310,0.169,0.100,west-northwest,8.5,No
2017/11/05,19:10,0.327,0.210,0.342,0.324,0.309,0.169,0.100,west-northwest,6.2,No
2017/11/05,19:20,0.328,0.209,0.343,0.324,0.310,0.169,0.100,west-northwest,7.0,No
2017/11/05,19:30,0.327,0.209,0.343,0.324,0.310,0.168,0.100,west-northwest,7.3,No
2017/11/05,19:40,0.325,0.209,0.342,0.322,0.310,0.169,0.100,west-northwest,7.5,No
2017/11/05,19:50,0.326,0.209,0.344,0.323,0.310,0.169,0.100,west-northwest,8.1,No
2017/11/05,20:00,0.325,0.210,0.342,0.323,0.310,0.169,0.100,west-northwest,7.4,No
2017/11/05,20:10,0.328,0.209,0.342,0.323,0.310,0.168,0.100,west-northwest,6.4,No
2017/11/05,20:20,0.327,0.210,0.342,0.324,0.311,0.168,0.101,west-northwest,5.9,No
2017/11/05,20:30,0.327,0.209,0.342,0.323,0.310,0.168,0.100,west-northwest,4.5,No
2017/11/05,20:40,0.327,0.209,0.344,0.321,0.309,0.168,0.100,west-northwest,4.6,No
2017/11/05,20:50,0.326,0.210,0.341,0.323,0.311,0.169,0.100,west-northwest,4.2,No
2017/11/05,21:00,0.326,0.210,0.342,0.324,0.310,0.169,0.100,west-northwest,3.9,No
2017/11/05,21:10,0.326,0.209,0.342,0.323,0.309,0.168,0.101,west-northwest,3.2,No
2017/11/05,21:20,0.327,0.209,0.343,0.323,0.309,0.168,0.100,west,3.1,No
2017/11/05,21:30,0.326,0.210,0.343,0.323,0.310,0.168,0.100,west,4.4,No
2017/11/05,21:40,0.325,0.209,0.343,0.323,0.310,0.169,0.100,west,3.8,No
2017/11/05,21:50,0.325,0.209,0.343,0.322,0.310,0.167,0.101,west-northwest,4.5,No
2017/11/05,22:00,0.326,0.209,0.343,0.324,0.311,0.168,0.099,west-northwest,5.3,No
2017/11/05,22:10,0.325,0.209,0.342,0.324,0.309,0.168,0.101,west-northwest,5.4,No
2017/11/05,22:20,0.327,0.209,0.342,0.323,0.310,0.168,0.100,west-northwest,3.9,No
2017/11/05,22:30,0.327,0.209,0.344,0.323,0.311,0.167,0.101,west-northwest,3.1,No
2017/11/05,22:40,0.327,0.209,0.342,0.323,0.309,0.167,0.100,west,2.9,No
2017/11/05,22:50,0.326,0.210,0.343,0.324,0.309,0.168,0.100,west,3.7,No
2017/11/05,23:00,0.326,0.210,0.343,0.324,0.309,0.169,0.101,west,3.0,No
2017/11/05,23:10,0.327,0.210,0.342,0.323,0.309,0.168,0.100,west-northwest,2.3,No
2017/11/05,23:20,0.327,0.210,0.342,0.325,0.309,0.169,0.101,west,1.5,No
2017/11/05,23:30,0.327,0.210,0.344,0.323,0.310,0.168,0.101,west-southwest,1.8,No
2017/11/05,23:40,0.325,0.209,0.342,0.323,0.309,0.169,0.101,southwest,1.7,No
2017/11/05,23:50,0.326,0.209,0.342,0.325,0.309,0.168,0.101,west-southwest,2.5,No
